Location: Apples
(46.5524°N, 6.4291°E)
Time: 11:54:35
(UTC+00:00)

Daily predictions for brighter satellites

Satellite Brightness Start Highest point End
(mag) Time Altitude Azimuth Time Altitude Azimuth Time Altitude Azimuth
SPOT 3 Rocket 4.2 19:34:55 10° SE 19:39:47 42° ENE 19:44:42 10° N
Cosmos 1825 2.9 19:36:30 10° SSW 19:40:11 57° WNW 19:43:54 10° N
Meteor 2-2 Rocket 4.5 19:34:59 10° NNW 19:40:49 81° W 19:46:30 10° S
IGS 5A 3.9 19:37:15 10° SE 19:41:13 46° ENE 19:45:12 10° N
BREEZE-M DEB (TANK) 3.9 19:28:27 10° W 19:42:54 75° NNW 19:46:44 10° ENE
Cosmos 1980 Rocket 2.2 19:38:40 10° NNW 19:44:20 80° ENE 19:49:59 10° SSE
Cosmos 2369 3.9 19:39:00 10° NNW 19:44:40 77° WSW 19:50:18 10° SSE
Cosmos 2058 3.1 19:40:48 10° S 19:44:58 81° W 19:49:12 10° N
Cosmos 2221 2.6 19:45:20 10° N 19:49:40 84° W 19:53:59 10° S
ERBS 3.8 19:47:38 10° WNW 19:50:25 27° SW 19:53:12 10° S
RESURS DK-1 2.3 19:46:17 10° SSW 19:50:26 78° ESE 19:54:36 10° NNE
COSMOS 2406 4.0 19:48:12 10° SW 19:53:47 60° WNW 19:59:28 10° NNE
BREEZE-M DEB (TANK) 3.4 19:50:50 10° SSW 19:54:04 47° SE 20:03:48 10° ENE
Cosmos 2322 Rocket 3.5 19:50:02 10° N 19:54:47 27° NE 19:59:28 10° ESE
IRS-1A Rocket 4.4 19:50:21 10° SSE 19:55:52 78° WSW 20:01:25 10° NNW
Cosmos 1689 Rocket 4.4 19:53:58 10° N 19:56:22 26° WNW 19:58:44 10° SW
Cosmos 304 Rocket 4.4 19:55:04 10° N 19:59:37 41° ENE 20:03:55 11° SE
BREEZE-M DEB (TANK) 3.3 19:56:58 10° WNW 19:59:57 88° SSW 20:08:35 10° ESE
Cosmos 1933 4.2 19:57:24 10° N 20:01:06 33° ENE 20:04:32 11° SE
Cosmos 1538 Rocket 4.1 19:56:11 10° S 20:01:16 56° ESE 20:06:20 10° NNE
Resurs 01 Rocket 1.6 19:59:25 10° SSE 20:03:50 81° ENE 20:08:19 10° NNW
Cosmos 2151 3.4 20:01:47 10° SSE 20:05:48 43° E 20:09:52 10° NNE
ERS-2 2.1 20:02:09 10° NNE 20:05:48 87° E 20:09:26 10° SSW
Cosmos 2098 Rocket 2.3 20:04:01 10° S 20:07:04 71° E 20:10:41 10° NNE
Cosmos 44 Rocket 4.4 20:02:09 10° SW 20:07:15 54° NW 20:12:25 10° NNE
Gbstr 26 Del rocket 3.1 20:05:21 10° WNW 20:09:03 58° NNE 20:12:56 10° E
Meteor 2-3 Rocket 4.2 20:05:41 10° SSE 20:10:58 43° E 20:16:21 10° NNE
CARTOSAT-1 4.4 20:09:29 12° SE 20:12:58 35° ENE 20:16:53 10° N
Cosmos 2219 Rocket 4.4 20:13:10 10° N 20:15:37 13° NE 20:18:05 10° ENE
Ariane Rocket 3.7 20:13:22 10° S 20:18:18 52° W 20:23:16 10° NNW
SL-16 R/B 2.6 20:18:06 10° NNW 20:23:38 50° ENE 20:28:03 16° SE
Cosmos 1782 3.5 20:23:48 10° N 20:27:35 38° ENE 20:30:03 18° SE
Cosmos 371 Rocket 3.6 20:23:33 10° NNW 20:28:20 65° WSW 20:32:51 11° S
ARIANE 5 R/B 3.2 20:26:51 17° SE 20:30:02 44° ENE 20:34:16 10° N
Cosmos 1271 Rocket 2.9 20:30:14 10° N 20:34:12 62° ENE 20:36:55 19° SSE
SPOT 1/Viking Rocket 3.6 20:31:18 12° SSE 20:36:11 87° W 20:41:26 10° NNW
USA 276 2.1 20:33:32 10° WNW 20:36:42 83° NNE 20:38:32 23° ESE
BREEZE-M DEB (TANK) 2.6 20:34:45 10° WNW 20:37:46 67° SSW 20:43:14 17° SE
Cosmos 2195 Rocket 4.4 20:32:01 10° S 20:38:04 70° E 20:44:10 10° NNE
Cosmos 1076 Rocket 4.5 20:34:05 10° SSW 20:38:18 50° WNW 20:42:34 10° N
Cosmos 1766 Rocket 4.2 20:37:41 19° SSE 20:40:14 36° E 20:44:16 10° NNE
Cosmos 1151 Rocket 3.5 20:37:01 10° N 20:41:13 44° ENE 20:43:40 22° SE
ATLAS 5 CENTAUR R/B 4.3 20:38:32 10° NNW 20:42:00 18° NNE 20:45:50 10° ENE
ATLAS 2AS CENTAUR R/B 4.1 20:37:28 10° WSW 20:45:05 49° NW 20:52:30 10° NE
Cosmos 1328 Rocket 4.3 20:41:15 10° N 20:45:26 38° ENE 20:47:40 23° SE
Cosmos 923 Rocket 4.0 20:42:22 10° S 20:47:38 63° ESE 20:52:56 10° NNE
Terra 2.4 20:47:56 22° SE 20:50:38 42° ENE 20:55:07 10° N
ATLAS 3B R/B 3.4 20:43:55 10° NW 20:50:47 53° WSW 20:56:42 15° S
SPOT 5 2.7 20:50:48 24° SE 20:53:15 59° ENE 20:57:35 10° N
USA 267 4.0 20:49:15 10° ENE 20:54:39 27° SE 20:59:02 14° S
Cosmos 1092 Rocket 4.1 20:49:54 10° S 20:56:10 83° W 21:02:32 10° N
Cosmos 2082 Rocket 3.8 20:51:05 10° WSW 20:56:17 38° NW 21:01:33 10° NNE
Cosmos 2056 Rocket 4.0 20:54:02 10° NNW 20:59:15 48° ENE 21:02:09 24° SE
NOSS 2-1 (C) 4.0 21:00:51 25° E 21:00:51 25° E 21:02:55 10° ENE
BREEZE-M DEB (TANK) 2.5 21:00:10 10° W 21:02:25 45° N 21:03:12 26° NE
ERS-1 Rocket 2.9 21:00:35 24° SSE 21:03:40 78° ENE 21:08:42 10° NNW
SL-27 R/B 3.6 21:06:23 27° E 21:06:23 27° E 21:09:21 10° NE
Cosmos 2360 Rocket 2.7 21:01:31 10° NNW 21:07:01 50° ENE 21:10:08 25° ESE
NOSS 2-1 (D) 3.7 21:08:18 32° E 21:08:18 32° E 21:10:44 10° NE
Cosmos 2026 Rocket 4.1 21:02:47 10° S 21:09:09 82° W 21:15:27 10° N
GP-B 3.4 21:08:36 10° N 21:13:02 66° W 21:16:14 18° SSW
ISS -2.4 21:12:40 10° W 21:15:34 26° SW 21:15:56 26° SSW
Cosmos 2333 Rocket 3.3 21:12:21 10° NNW 21:17:26 33° NE 21:20:38 19° ESE
Spot 2 Rocket 4.0 21:14:48 19° S 21:18:19 56° W 21:23:23 10° NNW
Meteor 1-10 Rocket 4.4 21:14:53 10° N 21:20:21 54° ENE 21:22:51 31° SE
Cosmos 1371 Rocket 4.0 21:15:24 10° NNW 21:20:49 79° ENE 21:23:22 32° SSE
Cosmos 1812 2.6 21:18:02 10° N 21:21:55 78° E 21:23:04 44° SSE
Cosmos 2112 Rocket 3.9 21:17:49 15° SSW 21:22:15 80° ESE 21:27:33 10° NNE
Cosmos 1680 Rocket 3.5 21:17:28 10° SSW 21:22:45 88° WNW 21:28:03 10° NNE
Cosmos 220 Rocket 3.9 21:19:52 10° NNW 21:24:14 86° WSW 21:25:50 39° SSE
Cosmos 1980 Rocket 4.5 21:24:12 10° WNW 21:27:36 17° W 21:31:01 10° SW
Okean 3 Rocket 3.7 21:24:58 23° SSW 21:27:43 76° W 21:32:15 10° N
USA 234 4.1 21:23:22 10° E 21:29:35 47° NNE 21:35:48 10° NW
Cosmos 292 Rocket 4.1 21:27:20 10° NNW 21:32:02 53° ENE 21:33:40 36° ESE
Cosmos 2237 Rocket 4.5 21:34:09 10° N 21:37:34 16° NE 21:40:59 10° ENE
Meteor 2-16 Rocket 4.5 21:35:25 32° SSE 21:38:14 62° E 21:44:14 10° NNE
Cosmos 2322 Rocket 2.5 21:33:41 10° NNW 21:39:14 60° WSW 21:41:46 31° S
Resurs 01 Rocket 4.4 21:39:27 10° WSW 21:40:54 11° W 21:42:24 10° WNW
Cosmos 1408 Rocket 3.4 21:40:12 44° S 21:41:34 81° E 21:45:56 10° N
Cosmos 1743 Rocket 4.0 21:42:22 42° ESE 21:42:59 45° E 21:47:13 10° NNE
Cosmos 2315 Rocket 4.4 21:43:39 10° N 21:49:49 52° ENE 21:52:17 34° SE
Cosmos 2084 3.4 21:48:52 20° SW 21:51:39 78° NW 21:55:51 10° NE
Sich 1 4.4 21:51:50 25° E 21:51:50 25° E 21:55:17 10° NNE
Cosmos 1553 Rocket 4.3 21:46:17 10° NNW 21:52:15 60° W 21:55:36 27° SSW
Gbstr 26 Del rocket 3.7 21:52:12 10° WNW 21:55:26 33° SW 21:55:26 33° SW
Cosmos 2266 Rocket 3.9 21:53:29 36° S 21:56:08 74° E 22:02:21 10° NNE
Cosmos 1862 3.9 21:57:03 34° SW 21:58:25 52° WNW 22:02:20 10° N
Cosmos 2219 Rocket 2.6 21:55:27 10° NNW 22:00:57 53° ENE 22:02:58 35° ESE
Cosmos 1624 Rocket 4.4 21:56:09 10° NNW 22:01:14 54° WSW 22:02:57 37° SSW
Cosmos 2228 Rocket 3.2 22:01:10 10° N 22:05:32 58° ENE 22:06:05 54° ESE
Cosmos 1515 Rocket 3.9 22:01:17 10° NNW 22:05:39 57° W 22:06:43 44° SW
NOSS 2-1 (E) 3.3 22:05:22 54° W 22:05:47 60° NW 22:09:13 10° NNE
H-2A R/B 3.6 22:01:55 10° N 22:06:06 70° WNW 22:07:15 46° SW
SL-16 R/B 3.6 22:02:42 10° NW 22:07:28 28° WSW 22:09:55 21° SW
NOSS 3-1 (C) 4.1 22:02:40 10° NW 22:10:09 85° NE 22:14:30 33° SE
Cosmos 2333 4.1 22:04:56 10° NNW 22:10:34 86° ENE 22:12:13 48° SSE
COSMOS 2455 2.9 22:09:10 44° SSE 22:10:40 56° ESE 22:16:34 10° NE
Cosmos 1420 Rocket 4.2 22:07:00 10° NNW 22:12:17 65° WSW 22:13:43 46° SSW
Cosmos 883 Rocket 4.4 22:08:26 10° N 22:14:41 90° E 22:16:57 43° S
COSMOS 2428 3.0 22:10:04 10° NNW 22:15:42 57° ENE 22:17:35 39° ESE
Cosmos 1655 Rocket 4.2 22:12:44 30° SSW 22:16:03 73° W 22:22:28 10° N
Spot 4 3.9 22:21:45 56° SE 22:22:34 67° ENE 22:27:23 10° N
USA 229 DEB 4.0 22:17:03 10° NW 22:24:20 70° NE 22:28:16 32° ESE
USA 229 4.1 22:17:09 10° NW 22:24:26 69° NE 22:28:23 31° ESE
ATLAS 5 CENTAUR R/B 2.8 22:22:24 10° NNW 22:27:43 52° NE 22:30:39 29° ESE
Terra 3.5 22:26:49 20° SW 22:28:32 24° W 22:32:25 10° NW
COSMOS 2487 3.3 22:31:49 43° NNE 22:31:49 43° NNE 22:34:13 10° NNE
Cosmos 1452 Rocket 3.4 22:26:34 10° NNW 22:31:51 85° WSW 22:32:49 60° S
Cosmos 1707 Rocket 3.9 22:27:55 10° N 22:32:10 49° ENE 22:32:18 49° E
ALOS 2 3.0 22:33:57 48° E 22:34:17 49° ENE 22:38:32 10° N
USA 267 3.1 22:31:39 10° NE 22:38:14 86° SE 22:44:48 10° SW
Meteor 1-27 Rocket 4.2 22:37:11 10° NNW 22:42:39 53° W 22:44:14 41° SW
NOSS 3-1 (A) 4.0 22:37:20 10° NW 22:44:51 86° NE 22:48:49 36° SE
Cosmos 1805 Rocket 3.7 22:49:13 60° WSW 22:49:37 64° WNW 22:54:02 10° N
Cosmos 2360 Rocket 3.4 22:46:01 10° NW 22:50:44 28° WSW 22:51:53 26° SW
Nadezhda 2 Rocket 4.5 22:49:09 51° S 22:50:52 79° E 22:57:17 10° N
Meteor 1-20 Rocket 4.2 22:54:51 56° SSW 22:56:06 82° W 23:01:50 10° N
Cosmos 1110 Rocket 3.9 22:52:33 10° NNW 22:57:55 86° ENE 22:58:40 67° SSE
Cosmos 1980 4.3 22:54:02 10° NNW 22:59:34 50° ENE 23:01:19 37° ESE
Cosmos 2333 Rocket 2.6 22:56:30 10° NW 23:01:53 46° WSW 23:02:38 44° SW
Cosmos 1331 Rocket 3.8 22:58:04 10° NNW 23:03:21 86° ENE 23:03:58 70° SSE
Cosmos 1244 Rocket 4.4 23:03:47 54° S 23:05:20 88° W 23:11:35 10° N
Cosmos 2322 4.3 23:06:44 10° NW 23:12:04 41° WSW 23:12:44 39° SW
USA 234 3.1 23:10:02 44° SE 23:12:21 80° SW 23:18:56 10° NW
Cosmos 1340 Rocket 4.5 23:13:35 24° ENE 23:13:35 24° ENE 23:16:01 10° NE
Nimbus 7 Rocket 4.4 23:07:00 10° NNE 23:13:00 65° ESE 23:14:02 55° SSE
NOSS 0 Rocket 3.8 23:08:16 10° NNW 23:14:33 89° ENE 23:16:01 56° SSE
Cosmos 2297 Rocket 2.7 23:17:11 42° ESE 23:17:18 42° ESE 23:22:37 10° NE
Okean 1-7 4.3 23:15:00 10° N 23:18:45 29° ENE 23:18:54 29° ENE
Lacrosse 5 2.9 23:21:59 33° E 23:21:59 33° E 23:25:20 10° ENE
Cosmos 2237 Rocket 2.3 23:17:03 10° NNW 23:22:45 70° ENE 23:24:02 52° ESE
Cosmos 2084 Rocket 3.7 23:19:58 10° NW 23:24:07 64° NE 23:24:07 64° NE
Meteor 1-18 Rocket 4.2 23:20:08 10° NNW 23:25:59 73° W 23:26:57 60° SSW
Cosmos 1500 3.8 23:26:57 55° NNW 23:26:57 55° NNW 23:30:09 10° N
Cosmos 1470 Rocket 3.7 23:29:03 66° NE 23:29:03 66° NE 23:32:59 10° NNE
Cosmos 2227 Rocket 2.8 23:28:53 39° ESE 23:29:01 39° ESE 23:34:14 10° NE
Sich 1 4.3 23:28:46 31° W 23:29:15 32° WNW 23:33:11 10° N
Okean 1 4.3 23:28:34 10° NNW 23:31:46 38° WNW 23:31:46 38° WNW
Cosmos 1633 Rocket 3.3 23:33:06 60° WNW 23:33:06 60° WNW 23:37:21 10° N
Cosmos 1933 Rocket 4.0 23:35:35 53° ENE 23:35:35 53° ENE 23:39:40 10° NNE
Cosmos 1666 Rocket 4.2 23:37:07 45° W 23:37:15 45° WNW 23:41:32 10° N
Meteor 1-11 Rocket 4.3 23:41:19 39° ESE 23:42:03 41° E 23:47:11 10° NNE
Cosmos 2219 Rocket 3.5 23:40:01 10° NW 23:44:33 26° WSW 23:44:40 26° WSW
NOSS 2-2 (C) 4.4 23:44:23 10° NW 23:49:40 81° NE 23:52:23 39° SE
SL-16 R/B 3.1 23:44:35 10° NNW 23:50:00 43° NE 23:52:42 26° ESE
Cosmos 1269 Rocket 3.8 23:50:05 74° S 23:50:34 86° ESE 23:55:53 10° NNE
PSLV R/B 3.7 23:47:19 10° NNE 23:52:07 76° ESE 23:52:11 76° ESE
Resurs 1-4 Rocket 4.1 23:50:43 10° NE 23:53:55 16° E 23:55:13 15° ESE
